www.pogodaiklimat.ru

Погода и климат >> Архив погоды >> Россия >> Удмуртия >> Ижевск


АРХИВ ПОГОДЫ в Ижевске

Время (UTC), дата Ветер
(напр.,м/с)
 
Видим.   Явления Облачность Т
(С)
Тd
(С)
f
(%)
Тe
(С)
Тes
(С)
Комфортность P
(гПа)
Po
(гПа)
Тmin
(С)
Tmax
(С)
R
(мм)
R24
(мм)
S
(см)
15 15.02 З 2-3
{4}
10 км 6/0
[Ac trans]
-5.8 -12.5 59 -10 -10 тепло 1039.3 1018.1 -4.0
18 15.02 штиль 0-2
{3}
10 км 3/0
[Ac trans]
-7.2 -13.0 63 -8 -8 тепло 1040.1 1018.8
21 15.02 штиль 0-2
{3}
10 км 3/0
[Ac trans]
-10.6 -15.0 70 -11 -11 тепло 1041.2 1019.7
00 16.02 штиль 0-2
{3}
10 км 3/0
[Ac trans]
-13.2 -16.7 75 -13 -13 по сезону 1042.6 1020.8
03 16.02 штиль 0-2
{3}
10 км 3/0
[Ac trans]
-15.2 -17.2 85 -15 -15 по сезону 1042.8 1020.8 -15.3 34
06 16.02 штиль 0-2
{2}
10 км 3/0
[Ci fib]
-14.4 -15.7 90 -14 -13 по сезону 1042.9 1021.0 -15.4
09 16.02 штиль 0-2
{2}
10 км 3/0
[Ac trans]
-8.5 -14.4 62 -9 -6 тепло 1042.7 1021.3
12 16.02 СЗ 2-3
{4}
10 км ясно -4.7 -12.9 53 -8 -8 тепло 1042.3 1021.2
15 16.02 Ю 2-2
{3}
10 км ясно -8.2 -13.9 63 -12 -12 по сезону 1042.0 1020.6 -4.4
18 16.02 ЮЗ 2-3
{4}
10 км ясно -10.8 -15.2 70 -15 -15 по сезону 1041.8 1020.2
21 16.02 Ю 2-3
{5}
10 км ясно -13.1 -15.8 80 -18 -18 по сезону 1041.7 1019.9
00 17.02 ЮЗ 3-3
{4}
10 км 6/0
[Ac trans]
-12.4 -14.4 85 -18 -18 по сезону 1041.0 1019.3
03 17.02 Ю 2-3
{5}
10 км 9/0
[Ac trans]
-11.2 -11.8 95 -16 -16 по сезону 1040.7 1019.1 -13.4 34
06 17.02 Ю 3-4
{5}
10 км 9/0
[Ac trans]
-10.8 -11.4 95 -17 -16 по сезону 1040.6 1019.0
09 17.02 Ю 3-4
{5}
10 км 4/0
[Ac trans Ci fib]
-6.4 -12.9 60 -12 -10 по сезону 1039.8 1018.6
12 17.02 Ю 2-4
{5}
10 км 3/0
[Ac trans]
-5.3 -11.7 61 -9 -9 по сезону 1038.7 1017.6
15 17.02 Ю 2-3
{4}
10 км 9/0
[Ac trans]
-8.8 -11.6 80 -13 -13 по сезону 1038.3 1017.0 -5.2
18 17.02 штиль 0-2
{4}
10 км 10/0
[Ac und]
-8.5 -11.3 80 -9 -9 тепло 1037.4 1016.2
21 17.02 Ю 2-3
{4}
10 км 10/0
[Ac und]
-9.4 -11.9 82 -14 -14 по сезону 1036.9 1015.6
00 18.02 Ю 2-3
{4}
10 км 9/0
[Ac trans]
-11.0 -12.3 90 -16 -16 по сезону 1036.4 1014.9
03 18.02 штиль 0-2
{3}
10 км 9/0
[Ac trans]
-10.8 -12.1 90 -11 -11 тепло 1036.1 1014.6 -11.1 34
06 18.02 Ю 2-3
{4}
10 км 10/0
[Ac trans Ci fib]
-10.2 -11.5 90 -15 -14 по сезону 1035.6 1014.2
09 18.02 Ю 2-3
{5}
10 км 6/0
[Ac trans Ci fib]
-6.1 -9.6 76 -10 -8 по сезону 1035.0 1013.9
12 18.02 ЮВ 2-3
{5}
10 км 8/0
[Ac trans]
-6.0 -9.9 74 -10 -10 по сезону 1034.1 1013.0
15 18.02 Ю 2-3
{5}
10 км 9/0
[Ac trans]
-8.4 -11.2 80 -13 -13 по сезону 1033.0 1011.9 -5.9
18 18.02 ЮВ 2-3
{5}
10 км 6/0
[Ac trans]
-8.9 -11.3 83 -13 -13 по сезону 1031.8 1010.6
21 18.02 ЮВ 2-4
{6}
10 км 8/0
[Ac trans]
-11.2 -12.5 90 -16 -16 по сезону 1030.8 1009.4
00 19.02 ЮВ 2-3
{4}
10 км 10/0
[Ac und]
-10.1 -12.1 85 -15 -15 по сезону 1029.1 1007.8
03 19.02 ЮВ 4-5
{6}
4000 м слабый снег 10/4 1000 м
[Sc Ac As]
-9.6 -11.7 85 -17 -17 по сезону 1027.0 1005.9 -11.3 0.0 34
06 19.02 ЮВ 4-5
{7}
10 км {снег} 10/3 1000 м
[Sc Ac As]
-8.9 -10.4 89 -16 -16 по сезону 1025.8 1004.7
09 19.02 ЮВ 4-5
{7}
4000 м слабый снег 10/4 1000 м
[Sc Ac As]
-7.0 -9.1 85 -14 -13 по сезону 1024.8 1003.9
12 19.02 Ю 4-5
{7}
2000 м снег 10/5 600 м
[Sc Ac As]
-7.7 -9.5 87 -14 -14 по сезону 1024.2 1003.2
15 19.02 Ю 4-5
{8}
10 км слабый снег 10/3 1000 м
[Sc Ac As]
-8.1 -9.5 90 -15 -15 по сезону 1023.2 1002.3 -6.9 1
18 19.02 Ю 2-3
{7}
10 км слабый снег 10/4 1000 м
[Sc Ac As]
-8.7 -10.2 89 -13 -13 по сезону 1022.4 1001.5
21 19.02 Ю 2-3
{6}
10 км слабый снег 10/4 1000 м
[Sc Ac As]
-8.6 -10.1 89 -13 -13 по сезону 1020.6 999.7
00 20.02 Ю 3-4
{5}
10 км слабый снег 10/5 600 м
[Sc Ac As]
-8.8 -9.9 92 -15 -15 по сезону 1019.7 998.7
03 20.02 Ю 2-3
{4}
4000 м слабый снег 10/5 1000 м
[Sc Ac As]
-9.2 -9.9 95 -14 -14 по сезону 1018.1 997.2 -9.4 2 36
06 20.02 Ю 2-3
{4}
10 км {снег} 6/0
[Ac trans]
-11.2 -12.5 90 -16 -15 по сезону 1017.2 996.1 -11.4
09 20.02 ЮВ 2-3
{4}
10 км 9/0
[Ac trans]
-8.2 -10.9 81 -13 -11 по сезону 1017.3 996.5
12 20.02 ЮВ 2-3
{4}
10 км 9/0
[Ac trans]
-8.0 -10.7 81 -12 -12 по сезону 1015.9 995.1
15 20.02 Ю 2-3
{4}
10 км {снег} 4/0
[Ac trans]
-12.2 -13.5 90 -17 -17 по сезону 1015.9 994.7 -7.7 0.0
18 20.02 Ю 2-2
{3}
10 км слабый снег 10/0
[As op]
-12.0 -12.7 95 -17 -17 по сезону 1015.4 994.2
21 20.02 штиль 0
{2}
10 км слабый снег 10/0
[Ac As]
-12.1 -12.7 95 -12 -12 по сезону 1014.5 993.3
00 21.02 штиль 0-2
{3}
10 км слабый снег 10/3 1000 м
[Sc Ac As]
-11.4 -12.0 95 -12 -12 по сезону 1014.0 992.9
03 21.02 Ю 2-3
{4}
10 км слабый снег 10/3 1000 м
[Sc Ac As]
-11.2 -11.8 95 -16 -16 по сезону 1013.2 992.3 -12.4 0.9 37
06 21.02 ЮЗ 2-3
{5}
10 км слабый снег 10/3 600 м
[Sc Ac As]
-10.9 -11.5 95 -15 -15 по сезону 1013.7 992.6
09 21.02 ЮЗ 2-3
{5}
10 км в посл. час снег 9/6 1000 м
[Sc diur, vesp Ac trans]
-7.3 -9.8 82 -12 -11 по сезону 1013.5 992.7
12 21.02 ЮЗ 2-4
{6}
10 км слабый снег 10/0
[Ac As]
-6.7 -9.5 80 -11 -11 по сезону 1013.5 992.8
15 21.02 ЮЗ 2-3
{4}
10 км слабый снег 10/3 1000 м
[Sc Ac As]
-9.7 -11.4 87 -14 -14 по сезону 1014.2 993.3 -6.6 0.3
18 21.02 ЮЗ 2-4
{6}
10 км слабый снег 10/0
[Ac As]
-11.2 -11.8 95 -16 -16 по сезону 1015.1 994.0
21 21.02 ЮЗ 2-3
{4}
10 км слабый снег 10/0
[Ac As]
-12.8 -13.4 95 -17 -17 по сезону 1015.7 994.5
00 22.02 ЮЗ 1-2
{4}
10 км слабый снег 10/0
[Ac As]
-14.6 -15.2 95 -17 -17 по сезону 1016.5 995.2
03 22.02 ЮЗ 1-2
{3}
10 км слабый снег 10/3 1000 м
[Sc Ac As]
-15.7 -16.3 95 -18 -18 по сезону 1016.9 995.4 -16.0 0.5 38
06 22.02 штиль 0-2
{3}
10 км {снег} 3/0
[Ac trans]
-15.5 -16.1 95 -16 -13 по сезону 1017.6 996.2
09 22.02 ЮЗ 2-3
{4}
10 км 3/0
[Ac trans]
-11.4 -14.9 75 -16 -13 по сезону 1017.7 996.6
12 22.02 ЮЗ 2-3
{5}
10 км {снег} 6/0
[Ac trans Ci fib]
-11.8 -15.3 75 -16 -16 по сезону 1018.3 997.1

 

Местоположение метеостанции Ижевск (Удмуртия, Россия): широта 56.83 долгота 53.45 высота над уровнем моря 159 м.

В архиве по умолчанию представлена погода в Ижевске за последнюю неделю. Архивные данные за месяц целиком и за предыдущие месяцы, начиная с января 2011 года, Вы можете получить, выбрав интересующий диапазон дат из раскрывающегося списка и нажав кнопку "Ввод!".

Внимание! Время в таблицах - всемирное. Для получения местного времени необходимо прибавить поправку, которая в Ижевске равна 4 ч.

Смотрите также архив погоды в соседних городах и на ближайших метеорологических станциях:

Погода в Воткинске (Удмуртия, Россия) (38 км)
Погода в Чайковском (Пермский край, Россия) (39 км)
Погода в Сарапуле (Удмуртия, Россия) (44 км)
Погода в Игре (Удмуртия, Россия) (83 км)
Погода в Ножовке (Пермский край, Россия) (84 км)
Погода в Можге (Удмуртия, Россия) (88 км)
Погода в Дебесах (Удмуртия, Россия) (92 км)
Погода в Селтах (Удмуртия, Россия) (94 км)
Погода в Янауле (Башкирия, Россия) (109 км)
Погода в Мензелинске (Татарстан, Россия) (126 км)

Пояснения к столбцам:

Ветер - указаны скорость ветра в м/с - средняя за 10 мин, порывы в срок и между сроками (в фигурных скобках) и направление, откуда дует ветер: С - северный, СВ - северо-восточный, В - восточный, ЮВ - юго-восточный, Ю - южный, ЮЗ - юго-западный, З - западный, СЗ - северо-западный.
Видимость - горизонтальная дальность видимости в метрах или километрах. При видимости от 1 до 10 км при отсутствии осадков обычно наблюдается дымка, при ухудшении видимости до 1 км и менее - туман. В сухую погоду видимость может ухудшаться дымом, пылью или мглою.
Явления - указаны атмосферные явления, наблюдавшиеся в срок или в последний час перед сроком; фигурными скобками обозначены явления, наблюдавшиеся между сроками (за 1-3 часа до срока); квадратными скобками обозначены град или гололедные отложения с указанием их диаметра в мм.
Облачность - указаны через наклонную черту общая и нижняя облачность в баллах и высота нижней границы облаков в метрах; квадратными скобками обозначены формы облаков: Ci - перистые, Cs - перисто-слоистые, Cc - перисто-кучевые, Ac - высококучевые, As - высокослоистые, Sc - слоисто-кучевые, Ns - слоисто-дождевые, Cu - кучевые, Cb - кучево-дождевые. Подробнее классификацию облаков см. в Атласе облаков (PDF).
T - Температура воздуха - температура, измеренная на высоте 2 м над землей.
Td - Температура точки росы - температура, при понижении до которой содержащийся в воздухе водяной пар достигнет насыщения.
f - Относительная влажность воздуха - влажноcть воздуха, измеренная на высоте 2 м над землей.
Te - Эффективная температура - температура, которую ощущает одетый по сезону человек в тени. Характеристика душности погоды. При расчете учитывается влияние влажности воздуха и скорости ветра на теплоощущения человека.
Tes - Эффективная температура на солнце - температура, которую ощущает человек, с поправкой на солнечный нагрев. Характеристика знойности погоды. Зависит от высоты солнца над горизонтом, облачности и скорости ветра. Ночью, в пасмурную погоду, а также при ветре 12 м/с и более поправка равна нулю.
P - Атмосферное давление - приведенное к уровню моря атмосферное давление.
Po - Атмосферное давление - измеренное на уровне метеостанции атмосферное давление.
Tmin - Минимальная температура - минимум температуры воздуха на высоте 2 м над землей.
Tmax - Максимальная температура - максимум температуры воздуха на высоте 2 м над землей.
R - Количество осадков - Количество выпавших осадков за период времени, мм. При наведении курсора мыши на число - период времени, за который выпало указанное количество осадков.
R24 - Количество осадков - Количество выпавших осадков за 24 часа, мм.
S - Снежный покров - Высота снежного покрова, см. При наведении курсора мыши на число - состояние снежного покрова и степень покрытия местности в баллах.